STARLINK X (59943 NORAD) Tracking and Keplerian Element Data

This shows tracking and keplerian element data for the satellite.

Feedback or suggestion? Click here.




ElementValue
Catalog59943
NameSTARLINK X
Epoch Orbit228
Epoch Day160.16667824
Epoch Year2024
RAAN22.3808
Inclination43.0019
Eccentricity0.0001974
Argument of Perigee279.3996
Mean Anonmoly183.1047
Mean Motion15.93659538
Decay Rate-0.01087099
L11 59943U 24106X 24160.16667824 -.01087099 35776-3 -28952-2 0 9991
L22 59943 43.0019 22.3808 0001974 279.3996 183.1047 15.93659538 2288



Live tracking and technical data element details for STARLINK X (NORAD 59943). STARLINK X can be tracked NOW for your location showing map with azimuth and elevation plus other details from your city location.







IsCatalogInMostPopularTable: catalog: 59943, numindb: 10
Update: records affected: 1



GetName: 59943 STARLINK X

Hit Count: updated at: Wed, 24 Jul 2024 23:54:57 GMT